CSA577 EDDV-LKPR

Flight info

Callsign CSA577
Flight time 0h 47m
Altitude 31000
Route POVEL3H POVEL Y800 TADUV Z21 DRN T620 LALUK DCT GOLOP
Aircraft A319/M-SDE3FGHIRWY/LB1

Departure

Time 2026-05-07 05:57
Airport Hannover Airport (EDDV)

Arrival

Time 2026-05-07 06:44
Airport Václav Havel Airport Prague (LKPR)
Time Latitude Longitude Altitude Speed Heading
2026-05-07 05:21 52.45839 9.69393 179 ft 0 kts 31°
2026-05-07 05:47 52.45831 9.69386 179 ft 4 kts 31°
2026-05-07 05:47 52.45808 9.69363 179 ft 4 kts 30°
2026-05-07 05:47 52.45789 9.69345 178 ft 0 kts 30°
2026-05-07 05:49 52.45793 9.69339 178 ft 1 kts 329°
2026-05-07 05:49 52.45786 9.69331 178 ft 1 kts 208°
2026-05-07 05:49 52.45758 9.69290 178 ft 10 kts 250°
2026-05-07 05:49 52.45736 9.69176 178 ft 11 kts 239°
2026-05-07 05:50 52.45666 9.69147 178 ft 11 kts 181°
2026-05-07 05:50 52.45624 9.69070 179 ft 10 kts 268°
2026-05-07 05:50 52.45627 9.68948 179 ft 11 kts 272°
2026-05-07 05:50 52.45630 9.68820 179 ft 12 kts 272°
2026-05-07 05:51 52.45633 9.68684 179 ft 12 kts 272°
2026-05-07 05:51 52.45638 9.68540 179 ft 13 kts 272°
2026-05-07 05:51 52.45640 9.68390 179 ft 13 kts 271°
2026-05-07 05:51 52.45645 9.68238 179 ft 14 kts 273°
2026-05-07 05:52 52.45650 9.68077 179 ft 14 kts 273°
2026-05-07 05:52 52.45655 9.67910 179 ft 15 kts 272°
2026-05-07 05:52 52.45644 9.67743 179 ft 15 kts 239°
2026-05-07 05:52 52.45562 9.67699 180 ft 8 kts 179°
2026-05-07 05:53 52.45555 9.67699 181 ft 0 kts 179°
2026-05-07 05:56 52.45551 9.67699 181 ft 2 kts 179°
2026-05-07 05:56 52.45529 9.67700 183 ft 4 kts 179°
2026-05-07 05:56 52.45497 9.67743 183 ft 10 kts 109°
2026-05-07 05:56 52.45492 9.68018 183 ft 55 kts 91°
2026-05-07 05:57 52.45460 9.69053 185 ft 123 kts 92°
2026-05-07 05:57 52.45431 9.70718 385 ft 155 kts 90°
2026-05-07 05:57 52.45389 9.72497 1013 ft 159 kts 90°
2026-05-07 05:57 52.45333 9.74326 1725 ft 162 kts 91°
2026-05-07 05:58 52.45265 9.76181 2434 ft 164 kts 92°
2026-05-07 05:58 52.45203 9.78119 2847 ft 183 kts 91°
2026-05-07 05:58 52.45140 9.80358 3222 ft 203 kts 91°
2026-05-07 05:58 52.45075 9.82682 3827 ft 209 kts 90°
2026-05-07 05:59 52.45007 9.85088 4500 ft 213 kts 90°
2026-05-07 05:59 52.44935 9.87541 5154 ft 218 kts 90°
2026-05-07 05:59 52.44861 9.90039 5933 ft 221 kts 90°
2026-05-07 05:59 52.44757 9.92574 6669 ft 226 kts 96°
2026-05-07 06:00 52.44276 9.95078 7307 ft 239 kts 114°
2026-05-07 06:00 52.43424 9.97553 7773 ft 256 kts 118°
2026-05-07 06:00 52.42516 10.00102 8543 ft 261 kts 118°
2026-05-07 06:00 52.41591 10.02691 9352 ft 265 kts 119°
2026-05-07 06:01 52.40654 10.05317 10098 ft 269 kts 119°
2026-05-07 06:01 52.39708 10.07981 10807 ft 272 kts 120°
2026-05-07 06:01 52.38752 10.10667 11531 ft 274 kts 120°
2026-05-07 06:01 52.37784 10.13387 12141 ft 284 kts 120°
2026-05-07 06:02 52.36749 10.16300 12398 ft 308 kts 120°
2026-05-07 06:02 52.35630 10.19445 12622 ft 332 kts 121°
2026-05-07 06:02 52.34431 10.22818 12893 ft 351 kts 121°
2026-05-07 06:02 52.33186 10.26316 13527 ft 358 kts 121°
2026-05-07 06:03 52.31942 10.29806 14194 ft 362 kts 121°
2026-05-07 06:03 52.30663 10.33385 14846 ft 366 kts 121°
2026-05-07 06:03 52.29372 10.36993 15503 ft 370 kts 121°
2026-05-07 06:03 52.28067 10.40633 16146 ft 373 kts 121°
2026-05-07 06:04 52.26745 10.44311 16778 ft 377 kts 122°
2026-05-07 06:04 52.25406 10.48031 17418 ft 381 kts 122°
2026-05-07 06:04 52.24057 10.51785 18053 ft 385 kts 121°
2026-05-07 06:04 52.22693 10.55572 18622 ft 389 kts 122°
2026-05-07 06:05 52.21317 10.59386 19212 ft 392 kts 122°
2026-05-07 06:05 52.20400 10.61925 19620 ft 393 kts 122°
2026-05-07 06:05 52.19004 10.65782 20229 ft 396 kts 122°
2026-05-07 06:05 52.17600 10.69665 20816 ft 399 kts 122°
2026-05-07 06:06 52.16183 10.73576 21401 ft 402 kts 122°
2026-05-07 06:06 52.14286 10.78784 22121 ft 405 kts 122°
2026-05-07 06:06 52.13313 10.81451 22485 ft 407 kts 122°
2026-05-07 06:06 52.11848 10.85410 22995 ft 409 kts 123°
2026-05-07 06:07 52.10332 10.89344 23499 ft 412 kts 124°
2026-05-07 06:07 52.08772 10.93274 23933 ft 414 kts 124°
2026-05-07 06:07 52.07195 10.97205 24363 ft 416 kts 124°
2026-05-07 06:07 52.05612 11.01150 24781 ft 418 kts 124°
2026-05-07 06:08 52.04024 11.05126 25204 ft 420 kts 124°
2026-05-07 06:08 52.02436 11.09118 25631 ft 422 kts 124°
2026-05-07 06:08 52.00861 11.13083 26072 ft 424 kts 124°
2026-05-07 06:08 51.99241 11.17161 26500 ft 425 kts 124°
2026-05-07 06:09 51.97656 11.21143 26920 ft 427 kts 125°
2026-05-07 06:09 51.96038 11.25198 27355 ft 428 kts 125°
2026-05-07 06:09 51.94415 11.29268 27779 ft 430 kts 125°
2026-05-07 06:09 51.92790 11.33336 28195 ft 431 kts 125°
2026-05-07 06:10 51.91157 11.37416 28596 ft 432 kts 125°
2026-05-07 06:10 51.89521 11.41501 28986 ft 433 kts 125°
2026-05-07 06:10 51.87876 11.45602 29390 ft 434 kts 125°
2026-05-07 06:10 51.86229 11.49708 29757 ft 436 kts 125°
2026-05-07 06:11 51.84569 11.53823 30097 ft 437 kts 125°
2026-05-07 06:11 51.82901 11.57942 30387 ft 438 kts 126°
2026-05-07 06:11 51.81232 11.62060 30766 ft 438 kts 126°
2026-05-07 06:11 51.79559 11.66184 30915 ft 438 kts 126°
2026-05-07 06:12 51.77909 11.70257 30949 ft 431 kts 126°
2026-05-07 06:12 51.74634 11.78317 30941 ft 428 kts 126°
2026-05-07 06:13 51.71363 11.86331 30936 ft 427 kts 126°
2026-05-07 06:13 51.68086 11.94323 30930 ft 427 kts 126°
2026-05-07 06:14 51.64826 12.02260 30922 ft 427 kts 126°
2026-05-07 06:14 51.61518 12.10282 30918 ft 427 kts 126°
2026-05-07 06:15 51.58249 12.18197 30914 ft 427 kts 126°
2026-05-07 06:15 51.54955 12.26143 30907 ft 428 kts 126°
2026-05-07 06:16 51.51646 12.34103 30908 ft 428 kts 126°
2026-05-07 06:16 51.48340 12.42047 30901 ft 428 kts 126°
2026-05-07 06:17 51.45017 12.49978 30898 ft 428 kts 126°
2026-05-07 06:17 51.41709 12.57928 30899 ft 429 kts 125°
2026-05-07 06:18 51.38554 12.66043 30892 ft 429 kts 124°
2026-05-07 06:18 51.35443 12.74206 30888 ft 430 kts 124°
2026-05-07 06:19 51.32317 12.82281 30885 ft 430 kts 125°
2026-05-07 06:19 51.29135 12.90381 30882 ft 430 kts 125°
2026-05-07 06:20 51.25957 12.98476 30881 ft 431 kts 126°
2026-05-07 06:20 51.22781 13.06583 30872 ft 430 kts 126°
2026-05-07 06:21 51.19594 13.14669 30867 ft 430 kts 126°
2026-05-07 06:21 51.16402 13.22740 30863 ft 431 kts 127°
2026-05-07 06:22 51.13186 13.30817 30863 ft 432 kts 127°
2026-05-07 06:22 51.08347 13.42917 30857 ft 433 kts 128°
2026-05-07 06:23 51.05113 13.51002 30866 ft 433 kts 128°
2026-05-07 06:23 51.01595 13.58591 30865 ft 424 kts 140°
2026-05-07 06:24 50.96939 13.64056 30865 ft 413 kts 155°
2026-05-07 06:24 50.91926 13.68555 30861 ft 414 kts 154°
2026-05-07 06:25 50.89546 13.71186 30638 ft 420 kts 145°
2026-05-07 06:25 50.87451 13.74459 30389 ft 427 kts 136°
2026-05-07 06:25 50.85579 13.78132 30134 ft 429 kts 135°
2026-05-07 06:25 50.83702 13.81799 29872 ft 428 kts 135°
2026-05-07 06:26 50.81810 13.85440 29588 ft 429 kts 135°
2026-05-07 06:26 50.80033 13.89267 29295 ft 436 kts 128°
2026-05-07 06:26 50.78518 13.93447 29000 ft 439 kts 125°
2026-05-07 06:26 50.77029 13.97667 28719 ft 440 kts 125°
2026-05-07 06:27 50.75537 14.01903 28434 ft 441 kts 124°
2026-05-07 06:27 50.74047 14.06139 28155 ft 441 kts 124°
2026-05-07 06:27 50.72562 14.10363 27877 ft 440 kts 124°
2026-05-07 06:27 50.71094 14.14523 27608 ft 438 kts 124°
2026-05-07 06:28 50.69611 14.18706 27336 ft 436 kts 124°
2026-05-07 06:28 50.68135 14.22857 26717 ft 432 kts 124°
2026-05-07 06:28 50.66667 14.26982 26035 ft 429 kts 124°
2026-05-07 06:28 50.65211 14.31057 25365 ft 426 kts 124°
2026-05-07 06:29 50.63755 14.35120 24702 ft 423 kts 125°
2026-05-07 06:29 50.62017 14.38767 24061 ft 411 kts 140°
2026-05-07 06:29 50.59761 14.41395 23431 ft 400 kts 156°
2026-05-07 06:29 50.57177 14.42847 22779 ft 390 kts 172°
2026-05-07 06:30 50.54508 14.43109 22163 ft 382 kts 187°
2026-05-07 06:30 50.51936 14.42240 21587 ft 376 kts 201°
2026-05-07 06:30 50.49633 14.40350 21055 ft 373 kts 213°
2026-05-07 06:30 50.47471 14.38106 20516 ft 372 kts 213°
2026-05-07 06:31 50.45218 14.36141 20010 ft 370 kts 204°
2026-05-07 06:31 50.42770 14.34926 19497 ft 370 kts 193°
2026-05-07 06:31 50.40214 14.34505 19040 ft 369 kts 181°
2026-05-07 06:31 50.37658 14.34833 18580 ft 368 kts 174°
2026-05-07 06:32 50.35120 14.35353 18103 ft 366 kts 174°
2026-05-07 06:32 50.32641 14.35848 17600 ft 363 kts 174°
2026-05-07 06:32 50.30149 14.36339 17116 ft 359 kts 174°
2026-05-07 06:32 50.27679 14.36825 16630 ft 356 kts 175°
2026-05-07 06:33 50.25230 14.37308 16140 ft 353 kts 175°
2026-05-07 06:33 50.22800 14.37788 15651 ft 351 kts 175°
2026-05-07 06:33 50.20388 14.38264 15148 ft 349 kts 175°
2026-05-07 06:33 50.17985 14.38772 14652 ft 348 kts 172°
2026-05-07 06:34 50.15668 14.39861 14152 ft 349 kts 159°
2026-05-07 06:34 50.13545 14.41716 13636 ft 351 kts 147°
2026-05-07 06:34 50.11715 14.44260 13077 ft 354 kts 134°
2026-05-07 06:34 50.10202 14.47281 12555 ft 352 kts 130°
2026-05-07 06:35 50.08733 14.50319 12020 ft 350 kts 130°
2026-05-07 06:35 50.07267 14.53330 11489 ft 347 kts 130°
2026-05-07 06:35 50.05809 14.56317 10964 ft 345 kts 130°
2026-05-07 06:35 50.04358 14.59287 10553 ft 340 kts 130°
2026-05-07 06:36 50.02957 14.62153 10428 ft 326 kts 130°
2026-05-07 06:36 50.01608 14.64908 10300 ft 314 kts 131°
2026-05-07 06:36 50.00311 14.67553 10180 ft 303 kts 131°
2026-05-07 06:36 49.99050 14.70126 10027 ft 295 kts 131°
2026-05-07 06:37 49.97775 14.72617 9930 ft 292 kts 138°
2026-05-07 06:37 49.96115 14.74326 9579 ft 286 kts 163°
2026-05-07 06:37 49.94168 14.74637 9085 ft 279 kts 191°
2026-05-07 06:37 49.92392 14.73660 8593 ft 269 kts 214°
2026-05-07 06:38 49.91056 14.71736 7897 ft 267 kts 238°
2026-05-07 06:38 49.90457 14.69078 7476 ft 260 kts 265°
2026-05-07 06:38 49.90686 14.66300 7212 ft 264 kts 288°
2026-05-07 06:38 49.91634 14.63854 6883 ft 266 kts 304°
2026-05-07 06:39 49.92756 14.61595 6539 ft 262 kts 305°
2026-05-07 06:39 49.93861 14.59359 6209 ft 259 kts 304°
2026-05-07 06:39 49.94944 14.57147 5855 ft 256 kts 304°
2026-05-07 06:39 49.96012 14.54963 5494 ft 253 kts 304°
2026-05-07 06:40 49.97066 14.52805 5171 ft 249 kts 304°
2026-05-07 06:40 49.98104 14.50679 4849 ft 245 kts 304°
2026-05-07 06:40 49.99129 14.48580 4511 ft 241 kts 303°
2026-05-07 06:40 50.00111 14.46569 4202 ft 226 kts 303°
2026-05-07 06:41 50.01038 14.44668 3895 ft 216 kts 303°
2026-05-07 06:41 50.01924 14.42847 3611 ft 206 kts 303°
2026-05-07 06:41 50.02768 14.41114 3343 ft 195 kts 302°
2026-05-07 06:41 50.03554 14.39498 3111 ft 182 kts 302°
2026-05-07 06:42 50.04287 14.37990 2862 ft 169 kts 302°
2026-05-07 06:42 50.04968 14.36589 2644 ft 153 kts 301°
2026-05-07 06:42 50.05574 14.35348 2416 ft 137 kts 300°
2026-05-07 06:42 50.06133 14.34198 2196 ft 130 kts 300°
2026-05-07 06:43 50.06670 14.33083 2028 ft 129 kts 301°
2026-05-07 06:43 50.07226 14.31948 1877 ft 133 kts 302°
2026-05-07 06:43 50.07786 14.30810 1778 ft 133 kts 301°
2026-05-07 06:43 50.08338 14.29656 1537 ft 132 kts 300°
2026-05-07 06:44 50.08894 14.28496 1326 ft 134 kts 300°
2026-05-07 06:44 50.09429 14.27379 1212 ft 116 kts 301°
2026-05-07 06:44 50.09821 14.26535 1206 ft 72 kts 307°
2026-05-07 06:44 50.10055 14.26062 1191 ft 48 kts 308°
2026-05-07 06:45 50.10256 14.25714 1188 ft 33 kts 332°
2026-05-07 06:45 50.10392 14.25652 1184 ft 16 kts 351°
2026-05-07 06:45 50.10477 14.25721 1178 ft 14 kts 91°
2026-05-07 06:45 50.10494 14.25887 1175 ft 17 kts 74°
2026-05-07 06:46 50.10530 14.26073 1174 ft 19 kts 79°
2026-05-07 06:46 50.10538 14.26208 1174 ft 10 kts 95°
2026-05-07 06:46 50.10509 14.26304 1173 ft 10 kts 123°
2026-05-07 06:46 50.10469 14.26395 1174 ft 10 kts 124°
2026-05-07 06:47 50.10435 14.26472 1171 ft 2 kts 125°
2026-05-07 06:47 50.10429 14.26489 1173 ft 2 kts 112°
2026-05-07 06:47 50.10433 14.26500 1172 ft 1 kts 59°
2026-05-07 06:47 50.10440 14.26510 1172 ft 2 kts 43°
2026-05-07 06:48 50.10454 14.26525 1172 ft 3 kts 36°
2026-05-07 06:48 50.10460 14.26532 1172 ft 0 kts 34°
2026-05-07 06:48 50.10461 14.26532 1172 ft 0 kts 34°